Home   Weather   Paphos   Past weeks

Flag for Cyprus Past Weather in Paphos, Cyprus — Yesterday and Last 2 Weeks

Now
77 °F

Passing clouds.


Feels Like: 79 °F
Forecast: 77 / 86 °F
Wind: 3 mph from Northeast

Location: Paphos Airport

Current Time: Jul 28, 2017 at 7:57:13 am

Latest Report: Jul 28, 2017 at 7:00 am


Visibility: N/A

Pressure: 29.77 "Hg

Humidity: 79%

Dew Point: 70 °F

Location of PaphosLocation

Past Weather in Paphos — Graph

°F

Paphos Temperature Yesterday

Maximum temperature yesterday: 88 °F (at 11:00 am)
Minimum temperature yesterday: 75 °F (at 3:30 am)
Average temperature yesterday: 82 °F

High & Low Weather Summary for the Past Weeks

 TemperatureHumidityPressure
High91 °F (Jul 24, 1:00 pm)100% (Jul 13, 7:00 am)29.80 "Hg (Jul 13, 7:00 am)
Low70 °F (Jul 15, 5:00 am)46% (Jul 18, 8:00 am)29.53 "Hg (Jul 13, 6:00 pm)
Average82 °F76%29.69 "Hg
* Reported Jul 13 6:00 am — Jul 28 6:30 am, Paphos. Weather by CustomWeather, © 2017

Note: Actual official high and low records may vary slightly from our data, if they occured in-between our weather recording intervals... More about our weather records

Advertising

Paphos Weather History for the Previous 24 Hours

Scroll right to see more
 ConditionsComfort  
Time TempWeatherWind HumidityBarometerVisibility
6:30 am
Fri, Jul 28
72 °FPassing clouds.5 mph88%29.77 "HgN/A
6:00 am72 °FPassing clouds.5 mph88%29.77 "HgN/A
5:30 am75 °FPassing clouds.6 mph78%29.77 "HgN/A
5:00 am75 °FMild.3 mph78%29.77 "HgN/A
4:30 am77 °FWarm.5 mph79%29.77 "HgN/A
4:00 am77 °FWarm.6 mph79%29.77 "HgN/A
3:30 am77 °FWarm.6 mph83%29.74 "HgN/A
3:00 am79 °FPassing clouds.8 mph74%29.74 "HgN/A
2:30 am77 °FPassing clouds.9 mph79%29.77 "HgN/A
2:00 am79 °FPassing clouds.10 mph79%29.77 "HgN/A
1:30 am77 °FPassing clouds.13 mph83%29.77 "HgN/A
1:00 am79 °FPassing clouds.8 mph79%29.77 "HgN/A
12:30 am79 °FPassing clouds.8 mph84%29.77 "HgN/A
12:00 am79 °FClear.9 mph79%29.77 "Hg10 mi
11:30 pm
Thu, Jul 27
79 °FClear.8 mph79%29.74 "Hg10 mi
11:00 pm79 °FClear.7 mph79%29.74 "Hg10 mi
10:30 pm81 °FClear.9 mph74%29.74 "Hg10 mi
10:00 pm81 °FPassing clouds.9 mph74%29.74 "HgN/A
9:30 pm81 °FPassing clouds.8 mph74%29.74 "HgN/A
9:00 pm81 °FPassing clouds.12 mph74%29.74 "HgN/A
8:30 pm81 °FPassing clouds.13 mph74%29.74 "HgN/A
8:00 pm81 °FPassing clouds.16 mph79%29.71 "HgN/A
7:30 pm81 °FPassing clouds.17 mph79%29.71 "HgN/A
7:00 pm82 °FPassing clouds.18 mph74%29.71 "HgN/A
6:30 pm82 °FPassing clouds.18 mph74%29.71 "HgN/A
6:00 pm84 °FPassing clouds.20 mph70%29.71 "HgN/A
5:30 pm84 °FPassing clouds.20 mph74%29.71 "HgN/A
5:00 pm84 °FPassing clouds.18 mph74%29.71 "HgN/A
4:30 pm86 °FClear.18 mph70%29.71 "Hg5 mi
4:00 pm86 °FPassing clouds.18 mph70%29.74 "Hg5 mi
3:30 pm86 °FPassing clouds.17 mph70%29.74 "Hg5 mi
3:00 pm88 °FPassing clouds.16 mph70%29.74 "Hg5 mi
2:30 pm88 °FPassing clouds.15 mph70%29.74 "Hg5 mi
2:00 pm88 °FPassing clouds.14 mph70%29.74 "Hg5 mi
1:30 pm88 °FPassing clouds.15 mph70%29.74 "Hg5 mi
1:00 pm84 °FClear.14 mph79%29.74 "Hg5 mi
12:30 pm88 °FClear.15 mph75%29.71 "Hg5 mi
12:00 pm88 °FClear.15 mph70%29.74 "Hg5 mi
11:30 am86 °FClear.10 mph75%29.74 "Hg5 mi
11:00 am88 °FClear.7 mph75%29.74 "Hg5 mi
10:30 am86 °FClear.6 mph79%29.71 "Hg6 mi
10:00 am86 °FClear.8 mph79%29.71 "Hg5 mi
9:30 am84 °FClear.12 mph79%29.71 "Hg5 mi
9:00 am84 °FSunny.10 mph79%29.71 "Hg10 mi
8:30 am82 °FPassing clouds.7 mph84%29.71 "HgN/A
8:00 am84 °FPassing clouds.5 mph79%29.71 "HgN/A
7:30 am82 °FClear.5 mph84%29.68 "Hg5 mi
7:00 am79 °FClear.6 mph89%29.68 "Hg4 mi
Weather by CustomWeather, © 2017

See weather overviewHow to use our weather pages